N6BK KBID-KBDR

Flight info

Callsign N6BK
Flight time N/A
Altitude 3500
Route GON MAD
Aircraft C172/L-DOV/C

Departure

Time 2026-04-23 17:05
Airport Block Island State Airport (KBID)

Arrival

Time N/A
Airport Igor I Sikorsky Memorial Airport (KBDR)
Time Latitude Longitude Altitude Speed Heading
2026-04-23 16:59 41.16883 -71.57883 109 ft 0 kts 354°
2026-04-23 17:02 41.16886 -71.57884 109 ft 3 kts 355°
2026-04-23 17:02 41.16890 -71.57849 103 ft 5 kts 136°
2026-04-23 17:02 41.16879 -71.57799 112 ft 8 kts 83°
2026-04-23 17:03 41.16887 -71.57711 113 ft 11 kts 84°
2026-04-23 17:03 41.16884 -71.57603 113 ft 11 kts 108°
2026-04-23 17:03 41.16879 -71.57571 113 ft 0 kts 102°
2026-04-23 17:04 41.16877 -71.57561 113 ft 5 kts 96°
2026-04-23 17:04 41.16844 -71.57479 111 ft 15 kts 123°
2026-04-23 17:04 41.16838 -71.57344 113 ft 13 kts 89°
2026-04-23 17:04 41.16847 -71.57376 113 ft 22 kts 262°
2026-04-23 17:05 41.16815 -71.57825 228 ft 58 kts 270°
2026-04-23 17:05 41.16822 -71.58374 527 ft 60 kts 270°
2026-04-23 17:05 41.16872 -71.58943 833 ft 61 kts 276°
2026-04-23 17:05 41.16940 -71.59487 1110 ft 60 kts 284°
2026-04-23 17:06 41.17031 -71.60008 1445 ft 57 kts 298°
2026-04-23 17:06 41.17224 -71.60466 1826 ft 55 kts 303°
2026-04-23 17:06 41.17377 -71.60926 2239 ft 55 kts 294°
2026-04-23 17:06 41.17503 -71.61407 2535 ft 54 kts 296°
2026-04-23 17:07 41.17636 -71.61886 2778 ft 56 kts 302°
2026-04-23 17:07 41.17840 -71.62341 3013 ft 58 kts 306°
2026-04-23 17:07 41.18082 -71.62776 3263 ft 58 kts 312°
2026-04-23 17:07 41.18368 -71.63162 3477 ft 61 kts 317°
2026-04-23 17:08 41.18703 -71.63565 3544 ft 69 kts 319°
2026-04-23 17:08 41.19097 -71.63983 3545 ft 75 kts 321°
2026-04-23 17:08 41.19524 -71.64399 3549 ft 78 kts 323°
2026-04-23 17:08 41.19975 -71.64799 3563 ft 77 kts 325°
2026-04-23 17:09 41.20432 -71.65165 3580 ft 77 kts 327°
2026-04-23 17:09 41.20877 -71.65534 3581 ft 74 kts 317°
2026-04-23 17:09 41.21192 -71.66080 3580 ft 75 kts 302°
2026-04-23 17:09 41.21368 -71.66750 3574 ft 78 kts 290°
2026-04-23 17:10 41.21438 -71.67476 3573 ft 79 kts 284°
2026-04-23 17:10 41.21496 -71.68213 3549 ft 81 kts 285°
2026-04-23 17:10 41.21555 -71.68941 3572 ft 79 kts 285°
2026-04-23 17:10 41.21621 -71.69644 3603 ft 77 kts 287°
2026-04-23 17:11 41.21686 -71.70358 3609 ft 80 kts 285°
2026-04-23 17:11 41.21754 -71.71076 3626 ft 78 kts 288°
2026-04-23 17:11 41.21858 -71.71770 3643 ft 76 kts 292°
2026-04-23 17:11 41.21994 -71.72442 3640 ft 76 kts 294°
2026-04-23 17:12 41.22095 -71.72896 3621 ft 78 kts 294°
2026-04-23 17:12 41.22332 -71.73819 3577 ft 79 kts 296°
2026-04-23 17:12 41.22533 -71.74505 3542 ft 79 kts 297°
2026-04-23 17:12 41.22738 -71.75177 3538 ft 77 kts 298°
2026-04-23 17:13 41.22963 -71.75831 3514 ft 78 kts 300°
2026-04-23 17:13 41.23197 -71.76480 3509 ft 78 kts 301°
2026-04-23 17:13 41.23435 -71.77116 3494 ft 78 kts 301°
2026-04-23 17:13 41.23684 -71.77763 3484 ft 78 kts 302°
2026-04-23 17:14 41.23929 -71.78393 3475 ft 78 kts 302°
2026-04-23 17:14 41.24099 -71.78821 3469 ft 77 kts 302°
2026-04-23 17:14 41.24373 -71.79437 3456 ft 77 kts 304°
2026-04-23 17:14 41.24639 -71.80058 3449 ft 77 kts 303°
2026-04-23 17:15 41.24907 -71.80679 3439 ft 77 kts 304°
2026-04-23 17:15 41.25176 -71.81295 3433 ft 77 kts 304°
2026-04-23 17:15 41.25448 -71.81908 3432 ft 76 kts 304°
2026-04-23 17:15 41.25711 -71.82509 3447 ft 75 kts 304°
2026-04-23 17:16 41.25981 -71.83103 3447 ft 76 kts 305°
2026-04-23 17:16 41.26266 -71.83694 3448 ft 75 kts 307°
2026-04-23 17:16 41.26570 -71.84261 3457 ft 75 kts 309°
2026-04-23 17:16 41.26879 -71.84796 3495 ft 72 kts 310°
2026-04-23 17:17 41.27176 -71.85351 3490 ft 74 kts 308°
2026-04-23 17:17 41.27478 -71.85898 3509 ft 73 kts 309°
2026-04-23 17:17 41.27791 -71.86428 3525 ft 73 kts 311°
2026-04-23 17:17 41.28120 -71.86940 3539 ft 73 kts 312°
2026-04-23 17:18 41.28790 -71.87946 3562 ft 73 kts 313°
2026-04-23 17:18 41.29137 -71.88438 3573 ft 73 kts 315°
2026-04-23 17:18 41.29496 -71.88911 3576 ft 73 kts 315°
2026-04-23 17:19 41.29848 -71.89395 3579 ft 73 kts 315°
2026-04-23 17:19 41.30210 -71.89864 3570 ft 73 kts 317°
2026-04-23 17:19 41.30584 -71.90316 3554 ft 73 kts 318°
2026-04-23 17:19 41.30968 -71.90751 3537 ft 73 kts 319°
2026-04-23 17:20 41.31364 -71.91173 3514 ft 73 kts 319°
2026-04-23 17:20 41.32159 -71.92002 3494 ft 73 kts 321°
2026-04-23 17:21 41.32933 -71.92886 3477 ft 74 kts 308°
2026-04-23 17:21 41.33149 -71.93512 3481 ft 75 kts 289°
2026-04-23 17:21 41.33055 -71.94913 3329 ft 79 kts 269°
2026-04-23 17:22 41.32927 -71.95614 3226 ft 78 kts 269°
2026-04-23 17:22 41.32674 -71.97021 3082 ft 78 kts 269°
2026-04-23 17:23 41.32444 -71.98414 2936 ft 77 kts 273°
2026-04-23 17:23 41.32357 -71.99130 2902 ft 81 kts 272°
2026-04-23 17:23 41.32185 -72.00665 2679 ft 85 kts 273°
2026-04-23 17:24 41.32111 -72.01421 2572 ft 82 kts 274°
2026-04-23 17:24 41.32042 -72.02202 2574 ft 86 kts 272°
2026-04-23 17:24 41.31902 -72.03786 2518 ft 84 kts 274°
2026-04-23 17:25 41.31765 -72.05326 2517 ft 83 kts 274°
2026-04-23 17:25 41.31713 -72.06080 2524 ft 81 kts 275°
2026-04-23 17:26 41.31611 -72.07607 2500 ft 84 kts 276°
2026-04-23 17:26 41.31513 -72.09141 2439 ft 79 kts 276°
2026-04-23 17:27 41.31548 -72.10546 2530 ft 74 kts 289°
2026-04-23 17:27 41.31657 -72.11217 2536 ft 74 kts 290°
2026-04-23 17:27 41.31793 -72.11875 2558 ft 73 kts 294°
2026-04-23 17:27 41.31943 -72.12522 2564 ft 73 kts 293°
2026-04-23 17:28 41.32097 -72.13166 2552 ft 73 kts 295°
2026-04-23 17:28 41.32260 -72.13805 2555 ft 73 kts 295°
2026-04-23 17:28 41.32400 -72.14466 2587 ft 76 kts 291°
2026-04-23 17:28 41.32509 -72.15168 2601 ft 78 kts 287°
2026-04-23 17:29 41.32618 -72.15860 2557 ft 76 kts 288°
2026-04-23 17:29 41.32659 -72.16563 2587 ft 78 kts 275°
2026-04-23 17:29 41.32504 -72.18065 2605 ft 86 kts 271°
2026-04-23 17:30 41.32424 -72.18854 2601 ft 86 kts 271°
2026-04-23 17:30 41.32221 -72.20431 2650 ft 88 kts 271°
2026-04-23 17:30 41.32117 -72.21248 2623 ft 90 kts 271°
2026-04-23 17:31 41.32029 -72.22083 2545 ft 90 kts 272°
2026-04-23 17:31 41.31955 -72.22896 2474 ft 86 kts 275°
2026-04-23 17:31 41.31907 -72.23683 2422 ft 87 kts 272°
2026-04-23 17:31 41.31819 -72.24463 2447 ft 84 kts 270°
2026-04-23 17:32 41.31745 -72.25204 2440 ft 79 kts 272°
2026-04-23 17:32 41.31690 -72.25924 2499 ft 78 kts 276°
2026-04-23 17:32 41.31630 -72.26675 2476 ft 84 kts 275°
2026-04-23 17:32 41.31548 -72.27431 2564 ft 82 kts 273°
2026-04-23 17:33 41.31461 -72.28172 2567 ft 80 kts 274°
2026-04-23 17:33 41.31390 -72.28904 2562 ft 80 kts 276°
2026-04-23 17:33 41.31330 -72.29641 2535 ft 80 kts 276°
2026-04-23 17:33 41.31280 -72.30372 2529 ft 80 kts 276°
2026-04-23 17:34 41.31188 -72.31127 2577 ft 83 kts 272°
2026-04-23 17:34 41.31084 -72.31864 2546 ft 84 kts 269°
2026-04-23 17:34 41.30762 -72.33348 2543 ft 85 kts 268°
2026-04-23 17:35 41.30611 -72.34118 2606 ft 86 kts 269°
2026-04-23 17:35 41.30337 -72.35709 2615 ft 88 kts 270°
2026-04-23 17:35 41.30214 -72.36522 2614 ft 92 kts 271°
2026-04-23 17:36 41.30088 -72.37366 2546 ft 91 kts 270°
2026-04-23 17:36 41.29958 -72.38210 2494 ft 96 kts 269°
2026-04-23 17:36 41.29776 -72.39059 2554 ft 94 kts 265°
2026-04-23 17:36 41.29552 -72.39887 2514 ft 95 kts 263°
2026-04-23 17:37 41.29359 -72.40719 2462 ft 92 kts 267°
2026-04-23 17:37 41.29206 -72.41530 2471 ft 89 kts 268°
2026-04-23 17:37 41.29010 -72.43119 2522 ft 87 kts 273°
2026-04-23 17:38 41.28928 -72.43929 2514 ft 88 kts 272°
2026-04-23 17:38 41.28838 -72.44730 2466 ft 88 kts 275°
2026-04-23 17:38 41.28804 -72.45504 2507 ft 83 kts 279°
2026-04-23 17:38 41.28739 -72.46280 2448 ft 84 kts 275°
2026-04-23 17:39 41.28648 -72.47065 2352 ft 89 kts 273°
2026-04-23 17:39 41.28546 -72.47864 2359 ft 84 kts 274°
2026-04-23 17:39 41.28468 -72.48623 2373 ft 82 kts 276°
2026-04-23 17:39 41.28416 -72.49367 2392 ft 82 kts 277°
2026-04-23 17:40 41.28392 -72.50106 2430 ft 79 kts 279°
2026-04-23 17:40 41.28401 -72.50844 2408 ft 79 kts 284°
2026-04-23 17:40 41.28448 -72.51551 2455 ft 75 kts 286°
2026-04-23 17:40 41.28472 -72.52242 2493 ft 75 kts 282°
2026-04-23 17:41 41.28449 -72.52943 2496 ft 76 kts 281°
2026-04-23 17:41 41.28453 -72.54342 2465 ft 75 kts 281°
2026-04-23 17:41 41.28430 -72.55037 2478 ft 73 kts 282°
2026-04-23 17:42 41.28390 -72.56417 2490 ft 75 kts 281°
2026-04-23 17:42 41.28363 -72.57096 2500 ft 74 kts 281°
2026-04-23 17:42 41.28345 -72.57787 2473 ft 75 kts 281°
2026-04-23 17:43 41.28337 -72.58484 2495 ft 75 kts 282°
2026-04-23 17:43 41.28329 -72.59154 2507 ft 72 kts 282°
2026-04-23 17:43 41.28297 -72.59826 2542 ft 73 kts 281°
2026-04-23 17:43 41.28266 -72.60501 2520 ft 75 kts 281°
2026-04-23 17:44 41.28262 -72.61206 2527 ft 77 kts 283°
2026-04-23 17:44 41.28288 -72.61909 2556 ft 75 kts 285°
2026-04-23 17:44 41.28396 -72.63360 2598 ft 84 kts 283°
2026-04-23 17:45 41.28432 -72.64138 2618 ft 84 kts 282°
2026-04-23 17:45 41.28497 -72.65715 2610 ft 86 kts 283°
2026-04-23 17:45 41.28545 -72.66512 2559 ft 86 kts 284°
2026-04-23 17:46 41.28672 -72.68094 2527 ft 86 kts 280°
2026-04-23 17:46 41.28708 -72.68903 2502 ft 89 kts 282°
2026-04-23 17:46 41.28735 -72.69701 2551 ft 86 kts 282°
2026-04-23 17:47 41.28776 -72.70496 2530 ft 86 kts 282°
2026-04-23 17:47 41.28832 -72.71262 2475 ft 83 kts 284°
2026-04-23 17:47 41.28798 -72.72779 2425 ft 83 kts 277°
2026-04-23 17:48 41.28764 -72.73546 2432 ft 83 kts 276°
2026-04-23 17:48 41.28725 -72.74315 2422 ft 85 kts 276°
2026-04-23 17:48 41.28666 -72.75090 2449 ft 82 kts 277°
2026-04-23 17:48 41.28692 -72.75826 2464 ft 75 kts 287°
2026-04-23 17:49 41.28775 -72.76499 2519 ft 73 kts 290°
2026-04-23 17:49 41.28864 -72.77163 2524 ft 74 kts 284°
2026-04-23 17:49 41.28912 -72.77855 2506 ft 76 kts 283°
2026-04-23 17:49 41.28956 -72.78550 2518 ft 75 kts 283°
2026-04-23 17:50 41.28992 -72.79232 2564 ft 73 kts 284°
2026-04-23 17:50 41.29102 -72.80588 2703 ft 71 kts 290°
2026-04-23 17:50 41.29223 -72.81229 2754 ft 73 kts 292°
2026-04-23 17:51 41.29376 -72.81882 2762 ft 74 kts 296°
2026-04-23 17:51 41.29556 -72.82540 2802 ft 76 kts 297°
2026-04-23 17:51 41.29904 -72.83754 2570 ft 69 kts 296°
2026-04-23 17:52 41.30050 -72.84351 2423 ft 67 kts 295°
2026-04-23 17:52 41.30350 -72.85535 2191 ft 64 kts 297°
2026-04-23 17:52 41.30486 -72.86101 2048 ft 64 kts 294°
2026-04-23 17:53 41.30747 -72.87296 1807 ft 69 kts 293°
2026-04-23 17:53 41.30801 -72.87911 1626 ft 72 kts 270°
2026-04-23 17:53 41.30577 -72.88565 1397 ft 80 kts 249°
2026-04-23 17:54 41.30156 -72.89083 1223 ft 87 kts 227°
2026-04-23 17:54 41.29611 -72.89411 1122 ft 84 kts 217°
2026-04-23 17:54 41.28575 -72.89909 1186 ft 78 kts 212°
2026-04-23 17:55 41.27478 -72.90272 1201 ft 84 kts 202°
2026-04-23 17:55 41.26882 -72.90385 1207 ft 86 kts 198°
2026-04-23 17:55 41.26290 -72.90465 1153 ft 88 kts 198°
2026-04-23 17:56 41.25694 -72.90563 1049 ft 84 kts 199°
2026-04-23 17:56 41.24596 -72.90597 731 ft 83 kts 152°
2026-04-23 17:56 41.24187 -72.90074 590 ft 84 kts 127°
2026-04-23 17:57 41.23858 -72.89464 549 ft 80 kts 116°
2026-04-23 17:57 41.23866 -72.88841 466 ft 64 kts 30°
2026-04-23 17:57 41.24619 -72.88825 370 ft 55 kts 350°
2026-04-23 17:58 41.24991 -72.88833 281 ft 49 kts 353°
2026-04-23 17:58 41.25316 -72.88821 146 ft 46 kts 352°
2026-04-23 17:58 41.25640 -72.88818 40 ft 48 kts
2026-04-23 17:58 41.25930 -72.88796 13 ft 34 kts
2026-04-23 17:59 41.26112 -72.88789 14 ft 22 kts
2026-04-23 17:59 41.26258 -72.88785 11 ft 22 kts
2026-04-23 17:59 41.26415 -72.88771 9 ft 23 kts
2026-04-23 17:59 41.26566 -72.88758 8 ft 23 kts
2026-04-23 18:00 41.26620 -72.88657 9 ft 14 kts 39°
2026-04-23 18:00 41.26686 -72.88570 11 ft 14 kts 41°
2026-04-23 18:00 41.26702 -72.88490 13 ft 8 kts 124°
2026-04-23 18:00 41.26669 -72.88416 10 ft 1 kts 118°